OneWeb SL0309

operational
NORAD ID: 49095 Int'l Des: 2021-075 Owner: ONEWEBN Country: UK Constellation: oneweb
LEOCIRCULARPOLARONEWEB_TYPE

Über OneWeb SL0309

Beschreibung wird geladen...

Live-Position

3D-Globus wird geladen...

Nächste Überflüge

Höhenverlauf

Altitude vs Time

uPlot chart will show altitude changes over time

Zweizeiliger Elementsatz

1 49095U 21075W 25258.27602828 .00000019 00000-0 16871-4 0 9996
2 49095 87.9049 60.5378 0001727 106.9581 253.1739 13.17648502197376
Epoch: 15. Sept. 2025 • Age: 9 hours

Aktueller Status

Höhe 1221.6 km
Geschwindigkeit 7.24 km/s
Subsatellitenpunkt -72.20°S, 24.28°E
Startdatum 21. Aug. 2021
Alter 4 years
Typ internet

Technische Details

Klassifizierung Payload
Masse 148.00 kg
Trockenmasse 140.00 kg
Gesamtmasse 148.00 kg
Länge 1.30 m
Durchmesser 1.00 m
Spannweite 5.00 m
Form Trapezoid+2 pan
Hersteller ONEWUS
Bus-Typ ARROW
Phasenstatus In Orbit
Besitzer/Staat ONEWEBN/UK

Große Konstellationen

Loading constellations...